Regional Weather Roundup
Issued by NWS Burlington, VT

Home | Current Version | Previous Version | Text Only | Print | Product List | Glossary On
Versions: 1 2 3 4 5 6 7 8 9 10 11 12 13 14 15 16 17 18 19 20 21 22 23 24 25 26 27 28 29 30 31 32 33 34 35 36 37 38 39 40 41 42 43 44 45 46 47 48 49 50
000
ASUS41 KBTV 280610
RWRBTV
VERMONT REGIONAL WEATHER ROUNDUP
NATIONAL WEATHER SERVICE BURLINGTON VT
100 AM EST SAT FEB 28 2015

NOTE: "FAIR" INDICATES FEW OR NO CLOUDS BELOW 12,000 FEET WITH NO
SIGNIFICANT WEATHER AND/OR OBSTRUCTIONS TO VISIBILITY.

* THESE REPORTS ARE NOT UNDER NWS QUALITY CONTROL AND/OR DO NOT
  REPORT WEATHER SUCH AS PRECIPITATION AND FOG.

VTZ001>019-280700-
_____VERMONT_____


CITY           SKY/WX    TMP DP  RH WIND       PRES   REMARKS
BURLINGTON     CLEAR     -1 -10  65 CALM      30.58R
6HR MIN TEMP:  -2; 6HR MAX TEMP:  15;

MONTPELIER     CLEAR     -2 -11  65 CALM      30.53R
6HR MIN TEMP:  -4; 6HR MAX TEMP:   7;

MORRISVILLE    CLEAR    -11 -17  75 CALM      30.55R
6HR MIN TEMP: -13; 6HR MAX TEMP:   7;

ST. JOHNSBURY*   N/A     -8 -14  74 MISG      30.54R
6HR MIN TEMP:  -8; 6HR MAX TEMP:   8;

LYNDONVILLE*   FAIR       4  -8  57 CALM      30.50R
6HR MIN TEMP:  -4; 6HR MAX TEMP:  11;

MIDDLEBURY*    FAIR       0  -6  73 SE3       30.57R
6HR MIN TEMP:   0; 6HR MAX TEMP:  10;

RUTLAND*       CLEAR      1  -9  60 E6        30.55R
6HR MIN TEMP:   1; 6HR MAX TEMP:  16;

SPRINGFIELD    CLEAR     -4  -9  79 CALM      30.56R
6HR MIN TEMP:  -6; 6HR MAX TEMP:  10;

HIGHGATE*      FAIR       6  -3  66 S5        30.57R
6HR MIN TEMP:  -6; 6HR MAX TEMP:   8;

NEWPORT*       FAIR      -6 -13  72 SW5       30.51R
6HR MIN TEMP: -10; 6HR MAX TEMP:   9;

BENNINGTON     CLEAR      6  -3  66 CALM      30.57R
6HR MIN TEMP:   6; 6HR MAX TEMP:  14;


_____LAKE CHAMPLAIN_____


CITY           SKY/WX    TMP DP  RH WIND       PRES   REMARKS

$$

NYZ007-026>031-035-052-083-280700-
_____NORTHERN NEW YORK_____


CITY           SKY/WX    TMP DP  RH WIND       PRES   REMARKS
PLATTSBURGH    CLEAR     11  -1  58 CALM      30.59R
6HR MIN TEMP:   4; 6HR MAX TEMP:  13;

SARANAC LAKE   CLOUDY    -6 -10  83 S3        30.45R FOG
6HR MIN TEMP:  -9; 6HR MAX TEMP:   7;

MASSENA        CLEAR      6  -5  60 SW12      30.61R WCI  -9
6HR MIN TEMP:   5; 6HR MAX TEMP:   9;

OGDENSBURG*    CLEAR      3  -4  72 SW7       30.61R
POTSDAM*       CLEAR      7   0  72 W8        30.60R
WATERTOWN      CLOUDY    11   6  81 SW7       30.64R
6HR MIN TEMP:  11; 6HR MAX TEMP:  15; 6HR PCP:  0.02;

FT DRUM        LGT SNOW   7   3  85 SW7       30.59R FOG
                                      6HR PCP: TRACE;

ALBANY         PTCLDY     4  -5  66 CALM      30.65R
6HR MIN TEMP:   2; 6HR MAX TEMP:  16;

GLENS FALLS    CLEAR     -3 -11  68 CALM      30.62R
6HR MIN TEMP:  -4; 6HR MAX TEMP:  14;


$$
NHZ002-005-011-280700-
_____NEW HAMPSHIRE_____


CITY           SKY/WX    TMP DP  RH WIND       PRES   REMARKS
LEBANON        CLEAR     -7 -12  79 S3        30.55R
6HR MIN TEMP: -10; 6HR MAX TEMP:   6;

KEENE          CLEAR     -2  -6  84 CALM      30.56R
6HR MIN TEMP:  -2; 6HR MAX TEMP:  16;

MT WASHINGTON  CLEAR     -9 -24  49 NW31        N/A  WCI -39
6HR MIN TEMP: -13; 6HR MAX TEMP: -10;

PLYMOUTH       FAIR      -9 -11  90 CALM      30.54R
6HR MIN TEMP:  -9; 6HR MAX TEMP:  10;

WHITEFIELD     CLEAR    -17 -24  70 CALM      30.50R
6HR MIN TEMP: -18; 6HR MAX TEMP:   3;


$$

_____REGIONAL QUEBEC LOCATIONS_____


CITY           SKY/WX    TMP DP  RH WIND       PRES   REMARKS
MONTREAL       CLEAR      7  -4  61 SW15      30.56R WCI -11
QUEBEC CITY    CLEAR      1  -8  66 SW14      30.48R WCI -17
SHERBROOKE     CLEAR     -9 -15  77 VRB2      30.50R

_____REGIONAL ONTARIO LOCATIONS_____


CITY           SKY/WX    TMP DP  RH WIND       PRES   REMARKS
OTTAWA         CLEAR      1  -6  71 SW7       30.56R

______KEY______
VSB  - VISIBILITY IN MILES
WCI  - WIND CHILL INDEX
HX   - HEAT INDEX
$$



USA.gov is the U.S. government's official web portal to all federal, state and local government web resources and services.